Location: Unspecified
(0.0000°N, 0.0000°E)
Time: 11:06:04
(UTC+00:00)

Courier 1B Rocket - Visible Passes

Search period start: 22 April 2024 00:00
Search period end: 02 May 2024 00:00
Orbit: 920 x 1201 km, 28.2° (Epoch: 21 April)

Date Brightness Start Highest point End Pass type
(mag) Time Alt. Az. Time Alt. Az. Time Alt. Az.
23 Apr 7.1 19:44:11 10° S 19:46:08 14° S 19:46:08 14° S visible
24 Apr 7.4 20:34:35 10° SSW 20:35:25 13° SSW 20:35:25 13° SSW visible
25 Apr 6.5 19:34:14 10° SSW 19:38:24 22° SSE 19:38:24 22° SSE visible
26 Apr 6.8 18:34:23 10° S 18:38:00 15° SSE 18:41:28 11° SE visible
26 Apr 6.7 20:25:14 10° SW 20:27:52 24° SSW 20:27:52 24° SSW visible
27 Apr 5.9 19:24:38 10° SSW 19:30:42 33° SSE 19:31:04 32° SE visible
27 Apr 7.7 21:17:15 10° WSW 21:17:28 11° WSW 21:17:28 11° WSW visible
28 Apr 6.4 18:24:22 10° SSW 18:29:20 22° SSE 18:34:21 10° ESE visible
28 Apr 5.8 20:16:08 10° SW 20:20:46 46° SW 20:20:46 46° SW visible
29 Apr 5.4 19:15:19 10° SW 19:21:47 49° SSE 19:24:11 36° E visible
29 Apr 7.2 21:08:41 10° WSW 21:10:36 20° W 21:10:36 20° W visible
30 Apr 7.7 04:54:06 10° N 04:57:51 14° NNE 05:01:33 10° NE visible
30 Apr 5.9 18:14:46 10° SSW 18:20:32 32° SSE 18:26:38 10° E visible
30 Apr 5.2 20:07:18 10° WSW 20:14:07 73° NNW 20:14:07 73° NNW visible
01 May 7.9 03:54:52 10° N 03:55:58 10° NNE 03:57:04 10° NNE visible
01 May 5.0 19:06:15 10° SW 19:12:52 76° SSE 19:17:44 22° ENE visible
01 May 6.9 21:00:31 10° W 21:04:10 26° WNW 21:04:10 26° WNW visible
